Time,TemperatureF,DewpointF,PressureIn,WindDirection,WindDirectionDegrees,WindSpeedMPH,WindSpeedGustMPH,Humidity,HourlyPrecipIn,Conditions,Clouds,dailyrainin,SoftwareType,DateUTC
2013-08-28 00:01:00,65.0,65.0,27.93,ESE,112,0.0,0.0,100,0.00,,,0.00,Rainwise IP-100,2013-08-28 04:01:00,
2013-08-28 00:06:00,65.0,65.0,27.93,ESE,112,0.0,0.0,100,0.00,,,0.00,Rainwise IP-100,2013-08-28 04:06:00,
2013-08-28 00:11:00,65.0,65.0,27.93,ESE,112,0.0,0.0,100,0.00,,,0.00,Rainwise IP-100,2013-08-28 04:11:00,
2013-08-28 00:16:00,65.0,65.0,27.93,ESE,112,0.0,0.0,100,0.00,,,0.00,Rainwise IP-100,2013-08-28 04:16:00,
2013-08-28 00:21:00,65.0,65.0,27.93,ESE,112,0.0,0.0,100,0.00,,,0.00,Rainwise IP-100,2013-08-28 04:21:00,
2013-08-28 00:26:00,65.0,65.0,27.93,ESE,112,0.0,0.0,100,0.00,,,0.00,Rainwise IP-100,2013-08-28 04:26:00,
2013-08-28 00:31:00,65.0,65.0,27.93,ESE,112,0.0,0.0,100,0.00,,,0.00,Rainwise IP-100,2013-08-28 04:31:00,
2013-08-28 00:36:00,65.0,65.0,27.93,ESE,112,0.0,0.0,100,0.00,,,0.00,Rainwise IP-100,2013-08-28 04:36:00,
2013-08-28 00:41:00,65.0,65.0,27.93,ESE,112,0.0,0.0,100,0.00,,,0.00,Rainwise IP-100,2013-08-28 04:41:00,
2013-08-28 00:46:00,65.0,65.0,27.93,ESE,112,0.0,0.0,100,0.00,,,0.00,Rainwise IP-100,2013-08-28 04:46:00,
2013-08-28 00:51:00,65.0,65.0,27.92,ESE,112,0.0,0.0,100,0.00,,,0.00,Rainwise IP-100,2013-08-28 04:51:00,
2013-08-28 00:56:00,64.0,64.0,27.92,ESE,112,0.0,0.0,100,0.00,,,0.00,Rainwise IP-100,2013-08-28 04:56:00,
2013-08-28 01:01:00,64.0,64.0,27.92,ESE,112,0.0,0.0,100,0.00,,,0.00,Rainwise IP-100,2013-08-28 05:01:00,
2013-08-28 01:06:00,64.0,64.0,27.92,ESE,112,0.0,0.0,100,0.00,,,0.00,Rainwise IP-100,2013-08-28 05:06:00,
2013-08-28 01:11:00,64.0,64.0,27.92,ESE,112,0.0,0.0,100,0.00,,,0.00,Rainwise IP-100,2013-08-28 05:11:00,
2013-08-28 01:16:00,64.0,64.0,27.92,ESE,112,0.0,0.0,100,0.00,,,0.00,Rainwise IP-100,2013-08-28 05:16:00,
2013-08-28 01:21:00,64.0,64.0,27.92,ESE,112,0.0,0.0,100,0.00,,,0.00,Rainwise IP-100,2013-08-28 05:21:00,
2013-08-28 01:26:00,64.0,64.0,27.92,ESE,112,0.0,0.0,100,0.00,,,0.00,Rainwise IP-100,2013-08-28 05:26:00,
2013-08-28 01:31:00,64.0,64.0,27.92,ESE,112,0.0,0.0,100,0.00,,,0.00,Rainwise IP-100,2013-08-28 05:31:00,
2013-08-28 01:36:00,64.0,64.0,27.92,ESE,112,0.0,0.0,100,0.00,,,0.00,Rainwise IP-100,2013-08-28 05:36:00,
2013-08-28 01:41:00,64.0,64.0,27.92,ESE,112,0.0,0.0,100,0.00,,,0.00,Rainwise IP-100,2013-08-28 05:41:00,
2013-08-28 01:46:00,64.0,64.0,27.92,ESE,112,0.0,0.0,100,0.00,,,0.00,Rainwise IP-100,2013-08-28 05:46:00,
2013-08-28 01:51:00,64.0,64.0,27.92,ESE,112,0.0,0.0,100,0.00,,,0.00,Rainwise IP-100,2013-08-28 05:51:00,
2013-08-28 01:56:00,64.0,64.0,27.92,ESE,112,0.0,0.0,100,0.00,,,0.00,Rainwise IP-100,2013-08-28 05:56:00,
2013-08-28 02:01:00,64.0,64.0,27.91,ESE,112,0.0,0.0,100,0.00,,,0.00,Rainwise IP-100,2013-08-28 06:01:00,
2013-08-28 02:06:00,64.0,64.0,27.91,ESE,112,0.0,0.0,100,0.00,,,0.00,Rainwise IP-100,2013-08-28 06:06:00,
2013-08-28 02:11:00,64.0,64.0,27.91,ESE,112,0.0,0.0,100,0.00,,,0.00,Rainwise IP-100,2013-08-28 06:11:00,
2013-08-28 02:16:00,64.0,64.0,27.91,ESE,112,0.0,0.0,100,0.00,,,0.00,Rainwise IP-100,2013-08-28 06:16:00,
2013-08-28 02:21:00,64.0,64.0,27.91,ESE,112,0.0,0.0,100,0.00,,,0.00,Rainwise IP-100,2013-08-28 06:21:00,
2013-08-28 02:26:00,64.0,64.0,27.91,ESE,112,0.0,0.0,100,0.00,,,0.00,Rainwise IP-100,2013-08-28 06:26:00,
2013-08-28 02:31:00,63.0,63.0,27.90,ESE,112,0.0,0.0,100,0.00,,,0.00,Rainwise IP-100,2013-08-28 06:31:00,
2013-08-28 02:36:00,64.0,64.0,27.90,ESE,112,0.0,0.0,100,0.00,,,0.00,Rainwise IP-100,2013-08-28 06:36:00,
2013-08-28 02:41:00,64.0,64.0,27.90,ESE,112,0.0,0.0,100,0.00,,,0.00,Rainwise IP-100,2013-08-28 06:41:00,
2013-08-28 02:46:00,64.0,64.0,27.90,ESE,112,0.0,0.0,100,0.00,,,0.00,Rainwise IP-100,2013-08-28 06:46:00,
2013-08-28 02:51:00,64.0,64.0,27.90,ESE,112,0.0,0.0,100,0.00,,,0.00,Rainwise IP-100,2013-08-28 06:51:00,
2013-08-28 02:56:00,64.0,64.0,27.90,ESE,112,0.0,0.0,100,0.00,,,0.00,Rainwise IP-100,2013-08-28 06:56:00,
2013-08-28 03:01:00,63.0,63.0,27.90,ESE,112,0.0,0.0,100,0.00,,,0.00,Rainwise IP-100,2013-08-28 07:01:00,
2013-08-28 03:06:00,64.0,64.0,27.90,SE,135,0.0,2.0,100,0.00,,,0.00,Rainwise IP-100,2013-08-28 07:06:00,
2013-08-28 03:11:00,64.0,64.0,27.90,SE,135,2.0,3.0,100,0.00,,,0.00,Rainwise IP-100,2013-08-28 07:11:00,
2013-08-28 03:16:00,64.0,64.0,27.90,ESE,112,0.0,3.0,100,0.00,,,0.00,Rainwise IP-100,2013-08-28 07:16:00,
2013-08-28 03:21:00,63.0,63.0,27.89,ESE,112,0.0,0.0,100,0.00,,,0.00,Rainwise IP-100,2013-08-28 07:21:00,
2013-08-28 03:26:00,64.0,64.0,27.89,NNE,22,0.0,3.0,100,0.00,,,0.00,Rainwise IP-100,2013-08-28 07:26:00,
2013-08-28 03:31:00,64.0,64.0,27.89,NNE,22,0.0,0.0,100,0.00,,,0.00,Rainwise IP-100,2013-08-28 07:31:00,
2013-08-28 03:36:00,64.0,64.0,27.89,East,90,0.0,1.0,100,0.00,,,0.00,Rainwise IP-100,2013-08-28 07:36:00,
2013-08-28 03:41:00,64.0,64.0,27.88,WNW,292,0.0,0.0,100,0.00,,,0.00,Rainwise IP-100,2013-08-28 07:41:00,
2013-08-28 03:46:00,64.0,64.0,27.88,WNW,292,0.0,0.0,100,0.00,,,0.00,Rainwise IP-100,2013-08-28 07:46:00,
2013-08-28 03:51:00,64.0,64.0,27.88,WNW,292,0.0,0.0,100,0.00,,,0.00,Rainwise IP-100,2013-08-28 07:51:00,
2013-08-28 03:56:00,64.0,64.0,27.88,WNW,292,0.0,0.0,100,0.00,,,0.00,Rainwise IP-100,2013-08-28 07:56:00,
2013-08-28 04:01:00,64.0,64.0,27.88,SE,135,0.0,0.0,100,0.00,,,0.00,Rainwise IP-100,2013-08-28 08:01:00,
2013-08-28 04:06:00,65.0,65.0,27.88,WNW,292,0.0,4.0,100,0.00,,,0.00,Rainwise IP-100,2013-08-28 08:06:00,
2013-08-28 04:11:00,65.0,65.0,27.88,SSE,157,0.0,3.0,100,0.00,,,0.00,Rainwise IP-100,2013-08-28 08:11:00,
2013-08-28 04:16:00,65.0,65.0,27.88,WSW,247,0.0,3.0,100,0.00,,,0.00,Rainwise IP-100,2013-08-28 08:16:00,
2013-08-28 04:21:00,65.0,65.0,27.88,SE,135,0.0,0.0,100,0.00,,,0.00,Rainwise IP-100,2013-08-28 08:21:00,
2013-08-28 04:26:00,65.0,65.0,27.88,SE,135,0.0,0.0,100,0.00,,,0.00,Rainwise IP-100,2013-08-28 08:26:00,
2013-08-28 04:31:00,65.0,65.0,27.88,SE,135,0.0,0.0,100,0.00,,,0.00,Rainwise IP-100,2013-08-28 08:31:00,
2013-08-28 04:36:00,65.0,65.0,27.88,SE,135,0.0,0.0,100,0.00,,,0.00,Rainwise IP-100,2013-08-28 08:36:00,
2013-08-28 04:41:00,65.0,65.0,27.88,SE,135,0.0,0.0,100,0.00,,,0.00,Rainwise IP-100,2013-08-28 08:41:00,
2013-08-28 04:46:00,65.0,65.0,27.88,SE,135,0.0,0.0,100,0.00,,,0.00,Rainwise IP-100,2013-08-28 08:46:00,
2013-08-28 04:51:00,65.0,65.0,27.88,SE,135,0.0,0.0,100,0.00,,,0.00,Rainwise IP-100,2013-08-28 08:51:00,
2013-08-28 04:56:00,64.0,64.0,27.88,SE,135,0.0,0.0,100,0.00,,,0.00,Rainwise IP-100,2013-08-28 08:56:00,
2013-08-28 05:01:00,64.0,64.0,27.89,SE,135,0.0,0.0,100,0.00,,,0.00,Rainwise IP-100,2013-08-28 09:01:00,
2013-08-28 05:06:00,64.0,64.0,27.89,SE,135,0.0,0.0,100,0.00,,,0.00,Rainwise IP-100,2013-08-28 09:06:00,
2013-08-28 05:11:00,64.0,64.0,27.89,SE,135,0.0,0.0,100,0.00,,,0.00,Rainwise IP-100,2013-08-28 09:11:00,
2013-08-28 05:16:00,64.0,64.0,27.89,South,180,0.0,2.0,100,0.00,,,0.00,Rainwise IP-100,2013-08-28 09:16:00,
2013-08-28 05:21:00,64.0,64.0,27.89,South,180,0.0,0.0,100,0.00,,,0.00,Rainwise IP-100,2013-08-28 09:21:00,
2013-08-28 05:26:00,64.0,64.0,27.89,SSE,157,0.0,2.0,100,0.00,,,0.00,Rainwise IP-100,2013-08-28 09:26:00,
2013-08-28 05:31:00,64.0,64.0,27.89,SSE,157,0.0,1.0,100,0.00,,,0.00,Rainwise IP-100,2013-08-28 09:31:00,
2013-08-28 05:36:00,64.0,64.0,27.89,SSE,157,0.0,0.0,100,0.00,,,0.00,Rainwise IP-100,2013-08-28 09:36:00,
2013-08-28 05:41:00,64.0,64.0,27.89,SSE,157,0.0,0.0,100,0.00,,,0.00,Rainwise IP-100,2013-08-28 09:41:00,
2013-08-28 05:46:00,64.0,64.0,27.89,SSE,157,0.0,0.0,100,0.00,,,0.00,Rainwise IP-100,2013-08-28 09:46:00,
2013-08-28 05:51:00,64.0,64.0,27.89,West,270,0.0,0.0,100,0.00,,,0.00,Rainwise IP-100,2013-08-28 09:51:00,
2013-08-28 05:56:00,64.0,64.0,27.89,West,270,0.0,0.0,100,0.00,,,0.00,Rainwise IP-100,2013-08-28 09:56:00,
2013-08-28 06:01:00,64.0,64.0,27.89,SE,135,0.0,0.0,100,0.00,,,0.00,Rainwise IP-100,2013-08-28 10:01:00,
2013-08-28 06:06:00,64.0,64.0,27.89,SE,135,0.0,2.0,100,0.00,,,0.00,Rainwise IP-100,2013-08-28 10:06:00,
2013-08-28 06:11:00,64.0,64.0,27.90,SE,135,0.0,2.0,100,0.00,,,0.00,Rainwise IP-100,2013-08-28 10:11:00,
2013-08-28 06:16:00,64.0,64.0,27.90,SE,135,0.0,0.0,100,0.00,,,0.00,Rainwise IP-100,2013-08-28 10:16:00,
2013-08-28 06:21:00,64.0,64.0,27.90,SE,135,0.0,0.0,100,0.00,,,0.00,Rainwise IP-100,2013-08-28 10:21:00,
2013-08-28 06:26:00,64.0,64.0,27.90,SE,135,0.0,0.0,100,0.00,,,0.00,Rainwise IP-100,2013-08-28 10:26:00,
2013-08-28 06:31:00,64.0,64.0,27.90,SE,135,0.0,0.0,100,0.00,,,0.00,Rainwise IP-100,2013-08-28 10:31:00,
2013-08-28 06:36:00,64.0,64.0,27.90,SE,135,0.0,0.0,100,0.00,,,0.00,Rainwise IP-100,2013-08-28 10:36:00,
2013-08-28 06:41:00,64.0,64.0,27.90,SE,135,0.0,0.0,100,0.00,,,0.00,Rainwise IP-100,2013-08-28 10:41:00,
2013-08-28 06:46:00,64.0,64.0,27.90,SE,135,0.0,0.0,100,0.00,,,0.00,Rainwise IP-100,2013-08-28 10:46:00,
2013-08-28 06:51:00,64.0,64.0,27.90,SE,135,0.0,0.0,100,0.00,,,0.00,Rainwise IP-100,2013-08-28 10:51:00,
2013-08-28 06:56:00,64.0,64.0,27.90,SE,135,0.0,0.0,100,0.00,,,0.00,Rainwise IP-100,2013-08-28 10:56:00,
2013-08-28 07:01:00,64.0,64.0,27.90,SE,135,0.0,0.0,100,0.00,,,0.00,Rainwise IP-100,2013-08-28 11:01:00,
2013-08-28 07:06:00,64.0,64.0,27.90,SE,135,0.0,0.0,100,0.00,,,0.00,Rainwise IP-100,2013-08-28 11:06:00,
2013-08-28 07:11:00,64.0,64.0,27.90,SE,135,0.0,0.0,100,0.00,,,0.00,Rainwise IP-100,2013-08-28 11:11:00,
2013-08-28 07:16:00,64.0,64.0,27.90,SE,135,0.0,0.0,100,0.00,,,0.00,Rainwise IP-100,2013-08-28 11:16:00,
2013-08-28 07:21:00,64.0,64.0,27.91,SE,135,0.0,0.0,100,0.00,,,0.00,Rainwise IP-100,2013-08-28 11:21:00,
2013-08-28 07:26:00,64.0,64.0,27.91,SE,135,0.0,0.0,100,0.00,,,0.00,Rainwise IP-100,2013-08-28 11:26:00,
2013-08-28 07:31:00,64.0,64.0,27.91,SE,135,0.0,0.0,100,0.00,,,0.00,Rainwise IP-100,2013-08-28 11:31:00,
2013-08-28 07:36:00,64.0,64.0,27.91,SE,135,0.0,0.0,100,0.00,,,0.00,Rainwise IP-100,2013-08-28 11:36:00,
2013-08-28 07:41:00,64.0,64.0,27.91,SE,135,0.0,0.0,100,0.00,,,0.00,Rainwise IP-100,2013-08-28 11:41:00,
2013-08-28 07:46:00,64.0,64.0,27.91,SE,135,0.0,0.0,100,0.00,,,0.00,Rainwise IP-100,2013-08-28 11:46:00,
2013-08-28 07:51:00,65.0,65.0,27.92,SE,135,0.0,0.0,100,0.00,,,0.00,Rainwise IP-100,2013-08-28 11:51:00,
2013-08-28 07:56:00,65.0,65.0,27.92,SE,135,0.0,0.0,100,0.00,,,0.00,Rainwise IP-100,2013-08-28 11:56:00,
2013-08-28 08:01:00,65.0,65.0,27.92,SE,135,0.0,0.0,100,0.00,,,0.00,Rainwise IP-100,2013-08-28 12:01:00,
2013-08-28 08:06:00,65.0,65.0,27.92,SE,135,0.0,0.0,100,0.00,,,0.00,Rainwise IP-100,2013-08-28 12:06:00,
2013-08-28 08:11:00,66.0,66.0,27.91,SSW,202,2.0,0.0,100,0.00,,,0.00,Rainwise IP-100,2013-08-28 12:11:00,
2013-08-28 08:16:00,66.0,66.0,27.91,SSW,202,2.0,3.0,100,0.00,,,0.00,Rainwise IP-100,2013-08-28 12:16:00,
2013-08-28 08:21:00,67.0,67.0,27.91,SSW,202,0.0,3.0,100,0.00,,,0.00,Rainwise IP-100,2013-08-28 12:21:00,
2013-08-28 08:26:00,67.0,67.0,27.91,West,270,0.0,4.0,100,0.00,,,0.00,Rainwise IP-100,2013-08-28 12:26:00,
2013-08-28 08:31:00,68.0,68.0,27.91,SSE,157,2.0,3.0,100,0.00,,,0.00,Rainwise IP-100,2013-08-28 12:31:00,
2013-08-28 08:36:00,68.0,68.0,27.91,South,180,2.0,3.0,100,0.00,,,0.00,Rainwise IP-100,2013-08-28 12:36:00,
2013-08-28 08:41:00,69.0,68.0,27.90,WSW,247,0.0,3.0,97,0.00,,,0.00,Rainwise IP-100,2013-08-28 12:41:00,
2013-08-28 08:46:00,69.0,68.0,27.90,SSW,202,0.0,2.0,98,0.00,,,0.00,Rainwise IP-100,2013-08-28 12:46:00,
2013-08-28 08:51:00,70.0,68.0,27.90,West,270,0.0,3.0,94,0.00,,,0.00,Rainwise IP-100,2013-08-28 12:51:00,
2013-08-28 08:56:00,71.0,68.0,27.90,WSW,247,0.0,3.0,91,0.00,,,0.00,Rainwise IP-100,2013-08-28 12:56:00,
2013-08-28 09:01:00,72.0,70.0,27.90,SSW,202,0.0,2.0,95,0.00,,,0.00,Rainwise IP-100,2013-08-28 13:01:00,
2013-08-28 09:06:00,72.0,69.0,27.90,SW,225,0.0,0.0,93,0.00,,,0.00,Rainwise IP-100,2013-08-28 13:06:00,
2013-08-28 09:11:00,73.0,69.0,27.90,SSW,202,0.0,1.0,89,0.00,,,0.00,Rainwise IP-100,2013-08-28 13:11:00,
2013-08-28 09:16:00,73.0,69.0,27.90,WNW,292,0.0,3.0,86,0.00,,,0.00,Rainwise IP-100,2013-08-28 13:16:00,
2013-08-28 09:21:00,74.0,68.0,27.89,WSW,247,0.0,4.0,82,0.00,,,0.00,Rainwise IP-100,2013-08-28 13:21:00,
2013-08-28 09:26:00,73.0,67.0,27.89,WNW,292,1.0,3.0,83,0.00,,,0.00,Rainwise IP-100,2013-08-28 13:26:00,
2013-08-28 09:31:00,74.0,68.0,27.90,WNW,292,1.0,3.0,82,0.00,,,0.00,Rainwise IP-100,2013-08-28 13:31:00,
2013-08-28 09:36:00,75.0,68.0,27.90,SSW,202,2.0,4.0,79,0.00,,,0.00,Rainwise IP-100,2013-08-28 13:36:00,
2013-08-28 09:41:00,75.0,68.0,27.90,NW,315,0.0,3.0,80,0.00,,,0.00,Rainwise IP-100,2013-08-28 13:41:00,
2013-08-28 09:46:00,75.0,68.0,27.90,WNW,292,0.0,3.0,79,0.00,,,0.00,Rainwise IP-100,2013-08-28 13:46:00,
2013-08-28 09:51:00,77.0,70.0,27.90,WNW,292,0.0,0.0,79,0.00,,,0.00,Rainwise IP-100,2013-08-28 13:51:00,
2013-08-28 09:56:00,78.0,69.0,27.90,SSW,202,0.0,4.0,75,0.00,,,0.00,Rainwise IP-100,2013-08-28 13:56:00,
2013-08-28 10:01:00,77.0,68.0,27.89,WNW,292,0.0,5.0,74,0.00,,,0.00,Rainwise IP-100,2013-08-28 14:01:00,
2013-08-28 10:06:00,77.0,68.0,27.89,NW,315,0.0,4.0,74,0.00,,,0.00,Rainwise IP-100,2013-08-28 14:06:00,
2013-08-28 10:11:00,77.0,68.0,27.90,SW,225,0.0,4.0,74,0.00,,,0.00,Rainwise IP-100,2013-08-28 14:11:00,
2013-08-28 10:16:00,78.0,69.0,27.90,WSW,247,0.0,3.0,75,0.00,,,0.00,Rainwise IP-100,2013-08-28 14:16:00,
2013-08-28 10:21:00,78.0,69.0,27.91,WSW,247,0.0,3.0,74,0.00,,,0.00,Rainwise IP-100,2013-08-28 14:21:00,
2013-08-28 10:26:00,78.0,68.0,27.91,WNW,292,0.0,4.0,72,0.00,,,0.00,Rainwise IP-100,2013-08-28 14:26:00,
2013-08-28 10:31:00,79.0,69.0,27.91,SSW,202,0.0,3.0,73,0.00,,,0.00,Rainwise IP-100,2013-08-28 14:31:00,
2013-08-28 10:36:00,79.0,69.0,27.91,SSW,202,0.0,1.0,72,0.00,,,0.00,Rainwise IP-100,2013-08-28 14:36:00,
2013-08-28 10:41:00,79.0,69.0,27.90,SW,225,1.0,3.0,71,0.00,,,0.00,Rainwise IP-100,2013-08-28 14:41:00,
2013-08-28 10:46:00,79.0,68.0,27.90,SSE,157,2.0,3.0,69,0.00,,,0.00,Rainwise IP-100,2013-08-28 14:46:00,
2013-08-28 10:51:00,80.0,69.0,27.90,ESE,112,2.0,3.0,69,0.00,,,0.00,Rainwise IP-100,2013-08-28 14:51:00,
2013-08-28 10:56:00,81.0,69.0,27.90,West,270,0.0,3.0,67,0.00,,,0.00,Rainwise IP-100,2013-08-28 14:56:00,
2013-08-28 11:01:00,81.0,69.0,27.90,West,270,0.0,0.0,67,0.00,,,0.00,Rainwise IP-100,2013-08-28 15:01:00,
2013-08-28 11:06:00,81.0,69.0,27.90,WNW,292,0.0,0.0,67,0.00,,,0.00,Rainwise IP-100,2013-08-28 15:06:00,
2013-08-28 11:11:00,81.0,69.0,27.90,West,270,0.0,0.0,67,0.00,,,0.00,Rainwise IP-100,2013-08-28 15:11:00,
2013-08-28 11:16:00,81.0,69.0,27.90,WNW,292,0.0,0.0,66,0.00,,,0.00,Rainwise IP-100,2013-08-28 15:16:00,
2013-08-28 11:21:00,81.0,69.0,27.90,West,270,0.0,0.0,66,0.00,,,0.00,Rainwise IP-100,2013-08-28 15:21:00,
2013-08-28 11:26:00,80.0,67.0,27.90,WNW,292,0.0,0.0,66,0.00,,,0.00,Rainwise IP-100,2013-08-28 15:26:00,
2013-08-28 11:31:00,81.0,69.0,27.90,NW,315,0.0,0.0,67,0.00,,,0.00,Rainwise IP-100,2013-08-28 15:31:00,
2013-08-28 11:36:00,81.0,68.0,27.90,WNW,292,0.0,0.0,65,0.00,,,0.00,Rainwise IP-100,2013-08-28 15:36:00,
2013-08-28 11:41:00,81.0,69.0,27.90,SW,225,0.0,0.0,66,0.00,,,0.00,Rainwise IP-100,2013-08-28 15:41:00,
2013-08-28 11:46:00,81.0,67.0,27.90,SSE,157,0.0,0.0,64,0.00,,,0.00,Rainwise IP-100,2013-08-28 15:46:00,
2013-08-28 11:51:00,82.0,68.0,27.89,West,270,0.0,0.0,64,0.00,,,0.00,Rainwise IP-100,2013-08-28 15:51:00,
2013-08-28 11:56:00,82.0,67.0,27.89,ENE,67,0.0,0.0,62,0.00,,,0.00,Rainwise IP-100,2013-08-28 15:56:00,
2013-08-28 12:01:00,83.0,66.0,27.89,SSW,202,0.0,0.0,58,0.00,,,0.00,Rainwise IP-100,2013-08-28 16:01:00,
2013-08-28 12:06:00,82.0,67.0,27.89,South,180,0.0,0.0,61,0.00,,,0.00,Rainwise IP-100,2013-08-28 16:06:00,
2013-08-28 12:11:00,82.0,67.0,27.89,WNW,292,0.0,0.0,62,0.00,,,0.00,Rainwise IP-100,2013-08-28 16:11:00,
2013-08-28 12:16:00,82.0,68.0,27.89,WNW,292,0.0,0.0,64,0.00,,,0.00,Rainwise IP-100,2013-08-28 16:16:00,
2013-08-28 12:21:00,82.0,68.0,27.89,WNW,292,0.0,0.0,64,0.00,,,0.00,Rainwise IP-100,2013-08-28 16:21:00,
2013-08-28 12:26:00,82.0,67.0,27.89,South,180,0.0,0.0,62,0.00,,,0.00,Rainwise IP-100,2013-08-28 16:26:00,
2013-08-28 12:31:00,82.0,68.0,27.89,NW,315,0.0,0.0,64,0.00,,,0.00,Rainwise IP-100,2013-08-28 16:31:00,
2013-08-28 12:36:00,82.0,69.0,27.89,WNW,292,0.0,0.0,65,0.00,,,0.00,Rainwise IP-100,2013-08-28 16:36:00,
2013-08-28 12:41:00,83.0,69.0,27.89,WNW,292,0.0,0.0,62,0.00,,,0.00,Rainwise IP-100,2013-08-28 16:41:00,
2013-08-28 12:46:00,84.0,69.0,27.89,SE,135,0.0,0.0,60,0.00,,,0.00,Rainwise IP-100,2013-08-28 16:46:00,
2013-08-28 12:51:00,83.0,68.0,27.88,West,270,0.0,0.0,61,0.00,,,0.00,Rainwise IP-100,2013-08-28 16:51:00,
2013-08-28 12:56:00,82.0,67.0,27.88,NW,315,0.0,0.0,62,0.00,,,0.00,Rainwise IP-100,2013-08-28 16:56:00,
2013-08-28 13:01:00,82.0,68.0,27.88,WNW,292,0.0,0.0,63,0.00,,,0.00,Rainwise IP-100,2013-08-28 17:01:00,
2013-08-28 13:06:00,83.0,68.0,27.88,North,360,0.0,0.0,61,0.00,,,0.00,Rainwise IP-100,2013-08-28 17:06:00,
2013-08-28 13:11:00,83.0,68.0,27.88,WNW,292,0.0,0.0,61,0.00,,,0.00,Rainwise IP-100,2013-08-28 17:11:00,
2013-08-28 13:16:00,83.0,67.0,27.88,East,90,0.0,0.0,60,0.00,,,0.00,Rainwise IP-100,2013-08-28 17:16:00,
2013-08-28 13:21:00,82.0,68.0,27.88,SW,225,0.0,0.0,64,0.00,,,0.00,Rainwise IP-100,2013-08-28 17:21:00,
2013-08-28 13:26:00,82.0,68.0,27.88,WSW,247,0.0,0.0,63,0.00,,,0.00,Rainwise IP-100,2013-08-28 17:26:00,
2013-08-28 13:31:00,82.0,68.0,27.88,SW,225,0.0,4.0,64,0.00,,,0.00,Rainwise IP-100,2013-08-28 17:31:00,
2013-08-28 13:36:00,81.0,66.0,27.88,SSE,157,3.0,5.0,62,0.00,,,0.00,Rainwise IP-100,2013-08-28 17:36:00,
2013-08-28 13:41:00,81.0,68.0,27.88,SW,225,0.0,3.0,65,0.00,,,0.00,Rainwise IP-100,2013-08-28 17:41:00,
2013-08-28 13:46:00,81.0,67.0,27.88,SSW,202,3.0,4.0,64,0.00,,,0.00,Rainwise IP-100,2013-08-28 17:46:00,
2013-08-28 13:51:00,80.0,67.0,27.87,West,270,0.0,3.0,66,0.00,,,0.00,Rainwise IP-100,2013-08-28 17:51:00,
2013-08-28 13:56:00,81.0,68.0,27.87,ESE,112,0.0,1.0,65,0.00,,,0.00,Rainwise IP-100,2013-08-28 17:56:00,
2013-08-28 14:01:00,81.0,66.0,27.87,SSE,157,1.0,5.0,61,0.00,,,0.00,Rainwise IP-100,2013-08-28 18:01:00,
2013-08-28 14:06:00,82.0,69.0,27.87,SW,225,0.0,4.0,65,0.00,,,0.00,Rainwise IP-100,2013-08-28 18:06:00,
2013-08-28 14:11:00,82.0,68.0,27.86,WNW,292,0.0,0.0,63,0.00,,,0.00,Rainwise IP-100,2013-08-28 18:11:00,
2013-08-28 14:16:00,83.0,69.0,27.86,WNW,292,0.0,3.0,62,0.00,,,0.00,Rainwise IP-100,2013-08-28 18:16:00,
2013-08-28 14:21:00,84.0,70.0,27.85,SSE,157,0.0,0.0,63,0.00,,,0.00,Rainwise IP-100,2013-08-28 18:21:00,
2013-08-28 14:23:00,84.0,68.0,27.85,WNW,292,0.0,0.0,59,0.00,,,0.00,Rainwise IP-100,2013-08-28 18:23:00,
2013-08-28 14:24:00,84.0,69.0,27.85,WNW,292,0.0,0.0,60,0.00,,,0.00,Rainwise IP-100,2013-08-28 18:24:00,
2013-08-28 14:30:00,84.0,67.0,27.85,NW,315,0.0,0.0,57,0.00,,,0.00,Rainwise IP-100,2013-08-28 18:30:00,
2013-08-28 14:35:00,83.0,66.0,27.85,WNW,292,0.0,0.0,58,0.00,,,0.00,Rainwise IP-100,2013-08-28 18:35:00,
2013-08-28 14:40:00,83.0,67.0,27.86,WSW,247,0.0,0.0,59,0.00,,,0.00,Rainwise IP-100,2013-08-28 18:40:00,
2013-08-28 14:45:00,82.0,65.0,27.86,SE,135,0.0,0.0,56,0.00,,,0.00,Rainwise IP-100,2013-08-28 18:45:00,
2013-08-28 14:50:00,81.0,64.0,27.86,WNW,292,2.0,3.0,57,0.00,,,0.00,Rainwise IP-100,2013-08-28 18:50:00,
2013-08-28 14:55:00,82.0,67.0,27.86,SSW,202,0.0,4.0,62,0.00,,,0.00,Rainwise IP-100,2013-08-28 18:55:00,
2013-08-28 15:00:00,83.0,66.0,27.85,West,270,0.0,0.0,58,0.00,,,0.00,Rainwise IP-100,2013-08-28 19:00:00,
2013-08-28 15:05:00,82.0,66.0,27.85,WNW,292,0.0,3.0,58,0.00,,,0.00,Rainwise IP-100,2013-08-28 19:05:00,
2013-08-28 15:10:00,83.0,66.0,27.85,WNW,292,0.0,0.0,57,0.00,,,0.00,Rainwise IP-100,2013-08-28 19:10:00,
2013-08-28 15:15:00,83.0,66.0,27.85,West,270,0.0,0.0,57,0.00,,,0.00,Rainwise IP-100,2013-08-28 19:15:00,
2013-08-28 15:20:00,84.0,66.0,27.84,WSW,247,0.0,0.0,56,0.00,,,0.00,Rainwise IP-100,2013-08-28 19:20:00,
2013-08-28 15:25:00,84.0,66.0,27.84,SSW,202,0.0,0.0,54,0.00,,,0.00,Rainwise IP-100,2013-08-28 19:25:00,
2013-08-28 15:30:00,84.0,64.0,27.84,South,180,0.0,0.0,52,0.00,,,0.00,Rainwise IP-100,2013-08-28 19:30:00,
2013-08-28 15:35:00,85.0,65.0,27.84,SSW,202,0.0,0.0,52,0.00,,,0.00,Rainwise IP-100,2013-08-28 19:35:00,
2013-08-28 15:40:00,86.0,67.0,27.82,West,270,0.0,0.0,54,0.00,,,0.00,Rainwise IP-100,2013-08-28 19:40:00,
2013-08-28 15:45:00,86.0,66.0,27.82,SE,135,0.0,0.0,51,0.00,,,0.00,Rainwise IP-100,2013-08-28 19:45:00,
2013-08-28 15:50:00,85.0,65.0,27.82,WNW,292,0.0,0.0,52,0.00,,,0.00,Rainwise IP-100,2013-08-28 19:50:00,
2013-08-28 15:55:00,84.0,66.0,27.82,WNW,292,0.0,0.0,54,0.00,,,0.00,Rainwise IP-100,2013-08-28 19:55:00,
2013-08-28 16:00:00,84.0,66.0,27.84,WNW,292,0.0,0.0,56,0.00,,,0.00,Rainwise IP-100,2013-08-28 20:00:00,
2013-08-28 16:05:00,85.0,66.0,27.84,North,360,0.0,0.0,53,0.00,,,0.00,Rainwise IP-100,2013-08-28 20:05:00,
2013-08-28 16:10:00,86.0,66.0,27.82,North,360,0.0,0.0,53,0.00,,,0.00,Rainwise IP-100,2013-08-28 20:10:00,
2013-08-28 16:15:00,87.0,67.0,27.82,North,360,0.0,0.0,52,0.00,,,0.00,Rainwise IP-100,2013-08-28 20:15:00,
2013-08-28 16:20:00,87.0,66.0,27.81,ESE,112,0.0,0.0,50,0.00,,,0.00,Rainwise IP-100,2013-08-28 20:20:00,
2013-08-28 16:25:00,87.0,67.0,27.81,ESE,112,0.0,0.0,52,0.00,,,0.00,Rainwise IP-100,2013-08-28 20:25:00,
2013-08-28 16:30:00,87.0,66.0,27.81,ESE,112,0.0,0.0,51,0.00,,,0.00,Rainwise IP-100,2013-08-28 20:30:00,
2013-08-28 16:35:00,87.0,66.0,27.81,NNE,22,0.0,0.0,50,0.00,,,0.00,Rainwise IP-100,2013-08-28 20:35:00,
2013-08-28 16:41:00,87.0,66.0,27.80,SSE,157,0.0,0.0,51,0.00,,,0.00,Rainwise IP-100,2013-08-28 20:41:00,
2013-08-28 16:46:00,86.0,66.0,27.80,SW,225,0.0,0.0,52,0.00,,,0.00,Rainwise IP-100,2013-08-28 20:46:00,
2013-08-28 16:51:00,86.0,66.0,27.81,SW,225,0.0,0.0,52,0.00,,,0.00,Rainwise IP-100,2013-08-28 20:51:00,
2013-08-28 16:56:00,85.0,65.0,27.81,SE,135,0.0,3.0,52,0.00,,,0.00,Rainwise IP-100,2013-08-28 20:56:00,
2013-08-28 17:01:00,85.0,66.0,27.81,East,90,0.0,2.0,53,0.00,,,0.00,Rainwise IP-100,2013-08-28 21:01:00,
2013-08-28 17:06:00,84.0,66.0,27.81,East,90,0.0,0.0,56,0.00,,,0.00,Rainwise IP-100,2013-08-28 21:06:00,
2013-08-28 17:11:00,83.0,66.0,27.81,East,90,0.0,0.0,58,0.00,,,0.00,Rainwise IP-100,2013-08-28 21:11:00,
2013-08-28 17:16:00,83.0,66.0,27.81,WSW,247,0.0,3.0,57,0.00,,,0.00,Rainwise IP-100,2013-08-28 21:16:00,
2013-08-28 17:21:00,82.0,65.0,27.82,South,180,0.0,6.0,57,0.00,,,0.00,Rainwise IP-100,2013-08-28 21:21:00,
2013-08-28 17:26:00,82.0,66.0,27.82,SSE,157,0.0,4.0,59,0.00,,,0.00,Rainwise IP-100,2013-08-28 21:26:00,
2013-08-28 17:31:00,82.0,66.0,27.82,South,180,0.0,0.0,59,0.00,,,0.00,Rainwise IP-100,2013-08-28 21:31:00,
2013-08-28 17:36:00,82.0,66.0,27.82,SW,225,0.0,5.0,60,0.00,,,0.00,Rainwise IP-100,2013-08-28 21:36:00,
2013-08-28 17:41:00,81.0,66.0,27.82,SSW,202,0.0,4.0,62,0.00,,,0.00,Rainwise IP-100,2013-08-28 21:41:00,
2013-08-28 17:46:00,81.0,66.0,27.82,South,180,0.0,5.0,60,0.00,,,0.00,Rainwise IP-100,2013-08-28 21:46:00,
2013-08-28 17:51:00,81.0,66.0,27.81,ESE,112,0.0,8.0,61,0.00,,,0.00,Rainwise IP-100,2013-08-28 21:51:00,
2013-08-28 17:56:00,81.0,67.0,27.81,WSW,247,0.0,3.0,63,0.00,,,0.00,Rainwise IP-100,2013-08-28 21:56:00,
2013-08-28 18:01:00,80.0,66.0,27.81,East,90,0.0,4.0,62,0.00,,,0.00,Rainwise IP-100,2013-08-28 22:01:00,
2013-08-28 18:06:00,80.0,66.0,27.81,SE,135,0.0,5.0,63,0.00,,,0.00,Rainwise IP-100,2013-08-28 22:06:00,
2013-08-28 18:11:00,80.0,66.0,27.82,ESE,112,0.0,2.0,64,0.00,,,0.00,Rainwise IP-100,2013-08-28 22:11:00,
2013-08-28 18:16:00,80.0,67.0,27.82,West,270,0.0,4.0,65,0.00,,,0.00,Rainwise IP-100,2013-08-28 22:16:00,
2013-08-28 18:21:00,80.0,67.0,27.81,SSW,202,0.0,3.0,65,0.00,,,0.00,Rainwise IP-100,2013-08-28 22:21:00,
2013-08-28 18:26:00,80.0,68.0,27.81,West,270,2.0,5.0,67,0.00,,,0.00,Rainwise IP-100,2013-08-28 22:26:00,
2013-08-28 18:31:00,80.0,67.0,27.81,SE,135,1.0,5.0,66,0.00,,,0.00,Rainwise IP-100,2013-08-28 22:31:00,
2013-08-28 18:36:00,79.0,66.0,27.81,SSW,202,2.0,5.0,66,0.00,,,0.00,Rainwise IP-100,2013-08-28 22:36:00,
2013-08-28 18:41:00,79.0,67.0,27.81,SW,225,0.0,5.0,67,0.00,,,0.00,Rainwise IP-100,2013-08-28 22:41:00,
2013-08-28 18:46:00,79.0,67.0,27.81,South,180,0.0,5.0,67,0.00,,,0.00,Rainwise IP-100,2013-08-28 22:46:00,
2013-08-28 18:51:00,79.0,66.0,27.81,South,180,0.0,3.0,66,0.00,,,0.00,Rainwise IP-100,2013-08-28 22:51:00,
2013-08-28 18:56:00,79.0,67.0,27.81,ESE,112,0.0,3.0,67,0.00,,,0.00,Rainwise IP-100,2013-08-28 22:56:00,
2013-08-28 19:01:00,79.0,67.0,27.81,ESE,112,0.0,1.0,67,0.00,,,0.00,Rainwise IP-100,2013-08-28 23:01:00,
2013-08-28 19:06:00,78.0,67.0,27.81,ESE,112,0.0,0.0,69,0.00,,,0.00,Rainwise IP-100,2013-08-28 23:06:00,
2013-08-28 19:11:00,78.0,67.0,27.82,East,90,0.0,1.0,70,0.00,,,0.00,Rainwise IP-100,2013-08-28 23:11:00,
2013-08-28 19:16:00,78.0,68.0,27.82,East,90,0.0,0.0,72,0.00,,,0.00,Rainwise IP-100,2013-08-28 23:16:00,
2013-08-28 19:21:00,77.0,67.0,27.82,ENE,67,0.0,2.0,71,0.00,,,0.00,Rainwise IP-100,2013-08-28 23:21:00,
2013-08-28 19:26:00,77.0,67.0,27.82,ENE,67,0.0,0.0,72,0.00,,,0.00,Rainwise IP-100,2013-08-28 23:26:00,
2013-08-28 19:31:00,77.0,69.0,27.82,NE,45,0.0,0.0,78,0.00,,,0.00,Rainwise IP-100,2013-08-28 23:31:00,
2013-08-28 19:36:00,76.0,67.0,27.82,NW,315,0.0,1.0,75,0.00,,,0.00,Rainwise IP-100,2013-08-28 23:36:00,
2013-08-28 19:41:00,76.0,67.0,27.83,NW,315,0.0,0.0,76,0.00,,,0.00,Rainwise IP-100,2013-08-28 23:41:00,
2013-08-28 19:46:00,75.0,66.0,27.83,NW,315,0.0,0.0,75,0.00,,,0.00,Rainwise IP-100,2013-08-28 23:46:00,
2013-08-28 19:51:00,75.0,67.0,27.83,SSW,202,0.0,3.0,76,0.00,,,0.00,Rainwise IP-100,2013-08-28 23:51:00,
2013-08-28 19:56:00,75.0,67.0,27.83,SSW,202,0.0,3.0,77,0.00,,,0.00,Rainwise IP-100,2013-08-28 23:56:00,
2013-08-28 20:01:00,75.0,68.0,27.83,SSW,202,0.0,0.0,78,0.00,,,0.00,Rainwise IP-100,2013-08-29 00:01:00,
2013-08-28 20:06:00,74.0,67.0,27.83,NE,45,0.0,3.0,80,0.00,,,0.00,Rainwise IP-100,2013-08-29 00:06:00,
2013-08-28 20:11:00,74.0,66.0,27.84,SE,135,0.0,0.0,78,0.00,,,0.00,Rainwise IP-100,2013-08-29 00:11:00,
2013-08-28 20:16:00,74.0,66.0,27.84,NE,45,0.0,2.0,78,0.00,,,0.00,Rainwise IP-100,2013-08-29 00:16:00,
2013-08-28 20:21:00,74.0,68.0,27.84,North,360,0.0,0.0,81,0.00,,,0.00,Rainwise IP-100,2013-08-29 00:21:00,
2013-08-28 20:26:00,74.0,67.0,27.84,SE,135,0.0,0.0,80,0.00,,,0.00,Rainwise IP-100,2013-08-29 00:26:00,
2013-08-28 20:31:00,74.0,67.0,27.84,SE,135,0.0,3.0,80,0.00,,,0.00,Rainwise IP-100,2013-08-29 00:31:00,
2013-08-28 20:36:00,74.0,68.0,27.84,SE,135,0.0,0.0,81,0.00,,,0.00,Rainwise IP-100,2013-08-29 00:36:00,
2013-08-28 20:41:00,74.0,68.0,27.84,West,270,0.0,2.0,82,0.00,,,0.00,Rainwise IP-100,2013-08-29 00:41:00,
2013-08-28 20:46:00,73.0,67.0,27.84,West,270,0.0,0.0,82,0.00,,,0.00,Rainwise IP-100,2013-08-29 00:46:00,
2013-08-28 20:51:00,73.0,67.0,27.84,NW,315,0.0,4.0,83,0.00,,,0.00,Rainwise IP-100,2013-08-29 00:51:00,
2013-08-28 20:56:00,73.0,68.0,27.84,SE,135,0.0,2.0,84,0.00,,,0.00,Rainwise IP-100,2013-08-29 00:56:00,
2013-08-28 21:01:00,73.0,68.0,27.84,West,270,0.0,0.0,84,0.00,,,0.00,Rainwise IP-100,2013-08-29 01:01:00,
2013-08-28 21:06:00,73.0,67.0,27.84,East,90,0.0,5.0,83,0.00,,,0.00,Rainwise IP-100,2013-08-29 01:06:00,
2013-08-28 21:11:00,73.0,68.0,27.84,East,90,0.0,4.0,84,0.00,,,0.00,Rainwise IP-100,2013-08-29 01:11:00,
2013-08-28 21:16:00,73.0,68.0,27.84,East,90,0.0,0.0,85,0.00,,,0.00,Rainwise IP-100,2013-08-29 01:16:00,
2013-08-28 21:21:00,72.0,67.0,27.84,SSE,157,0.0,2.0,86,0.00,,,0.00,Rainwise IP-100,2013-08-29 01:21:00,
2013-08-28 21:26:00,72.0,67.0,27.84,NNE,22,0.0,3.0,86,0.00,,,0.00,Rainwise IP-100,2013-08-29 01:26:00,
2013-08-28 21:31:00,73.0,68.0,27.84,WSW,247,0.0,4.0,84,0.00,,,0.00,Rainwise IP-100,2013-08-29 01:31:00,
2013-08-28 21:36:00,73.0,68.0,27.84,WSW,247,0.0,0.0,84,0.00,,,0.00,Rainwise IP-100,2013-08-29 01:36:00,
2013-08-28 21:41:00,72.0,67.0,27.84,SSE,157,0.0,0.0,86,0.00,,,0.00,Rainwise IP-100,2013-08-29 01:41:00,
2013-08-28 21:46:00,72.0,68.0,27.85,SSE,157,0.0,0.0,87,0.00,,,0.00,Rainwise IP-100,2013-08-29 01:46:00,
2013-08-28 21:51:00,71.0,67.0,27.85,East,90,1.0,0.0,88,0.00,,,0.00,Rainwise IP-100,2013-08-29 01:51:00,
2013-08-28 21:56:00,71.0,67.0,27.85,ESE,112,0.0,3.0,88,0.00,,,0.00,Rainwise IP-100,2013-08-29 01:56:00,
2013-08-28 22:01:00,71.0,67.0,27.86,ESE,112,0.0,0.0,89,0.00,,,0.00,Rainwise IP-100,2013-08-29 02:01:00,
2013-08-28 22:06:00,71.0,67.0,27.86,South,180,0.0,2.0,89,0.00,,,0.00,Rainwise IP-100,2013-08-29 02:06:00,
2013-08-28 22:11:00,71.0,67.0,27.85,NW,315,0.0,0.0,88,0.00,,,0.00,Rainwise IP-100,2013-08-29 02:11:00,
2013-08-28 22:16:00,71.0,67.0,27.85,West,270,0.0,0.0,89,0.00,,,0.00,Rainwise IP-100,2013-08-29 02:16:00,
2013-08-28 22:21:00,71.0,67.0,27.86,WSW,247,0.0,3.0,89,0.00,,,0.00,Rainwise IP-100,2013-08-29 02:21:00,
2013-08-28 22:26:00,71.0,67.0,27.86,SSW,202,2.0,0.0,88,0.00,,,0.00,Rainwise IP-100,2013-08-29 02:26:00,
2013-08-28 22:31:00,71.0,66.0,27.85,SW,225,0.0,2.0,87,0.00,,,0.00,Rainwise IP-100,2013-08-29 02:31:00,
2013-08-28 22:36:00,72.0,67.0,27.85,WSW,247,0.0,1.0,85,0.00,,,0.00,Rainwise IP-100,2013-08-29 02:36:00,
2013-08-28 22:41:00,72.0,66.0,27.84,WSW,247,0.0,1.0,84,0.00,,,0.00,Rainwise IP-100,2013-08-29 02:41:00,
2013-08-28 22:46:00,73.0,67.0,27.84,WSW,247,0.0,2.0,83,0.00,,,0.00,Rainwise IP-100,2013-08-29 02:46:00,
2013-08-28 22:51:00,73.0,67.0,27.84,WNW,292,0.0,3.0,83,0.00,,,0.00,Rainwise IP-100,2013-08-29 02:51:00,
2013-08-28 22:56:00,72.0,66.0,27.84,WNW,292,0.0,0.0,84,0.00,,,0.00,Rainwise IP-100,2013-08-29 02:56:00,
2013-08-28 23:01:00,72.0,67.0,27.84,WNW,292,0.0,0.0,86,0.00,,,0.00,Rainwise IP-100,2013-08-29 03:01:00,
2013-08-28 23:06:00,71.0,66.0,27.84,SW,225,0.0,3.0,86,0.00,,,0.00,Rainwise IP-100,2013-08-29 03:06:00,
2013-08-28 23:11:00,72.0,67.0,27.84,WSW,247,1.0,3.0,86,0.00,,,0.00,Rainwise IP-100,2013-08-29 03:11:00,
2013-08-28 23:16:00,73.0,68.0,27.84,WSW,247,0.0,3.0,85,0.00,,,0.00,Rainwise IP-100,2013-08-29 03:16:00,
2013-08-28 23:21:00,73.0,68.0,27.84,SW,225,0.0,2.0,84,0.00,,,0.00,Rainwise IP-100,2013-08-29 03:21:00,
2013-08-28 23:26:00,73.0,68.0,27.84,SSW,202,0.0,0.0,85,0.00,,,0.00,Rainwise IP-100,2013-08-29 03:26:00,
2013-08-28 23:31:00,73.0,68.0,27.84,SSE,157,3.0,3.0,84,0.00,,,0.00,Rainwise IP-100,2013-08-29 03:31:00,
2013-08-28 23:36:00,73.0,68.0,27.84,SSW,202,1.0,4.0,84,0.00,,,0.00,Rainwise IP-100,2013-08-29 03:36:00,
2013-08-28 23:41:00,73.0,68.0,27.83,ESE,112,0.0,3.0,84,0.00,,,0.00,Rainwise IP-100,2013-08-29 03:41:00,
2013-08-28 23:46:00,73.0,68.0,27.83,SSW,202,3.0,3.0,85,0.00,,,0.00,Rainwise IP-100,2013-08-29 03:46:00,
2013-08-28 23:51:00,72.0,67.0,27.83,NW,315,0.0,4.0,86,0.00,,,0.00,Rainwise IP-100,2013-08-29 03:51:00,
2013-08-28 23:56:00,72.0,67.0,27.83,SW,225,0.0,0.0,86,0.00,,,0.00,Rainwise IP-100,2013-08-29 03:56:00,